User: anonymous   Login
Location: Caltech
(34.1382°N, 118.1253°W)
Time: 01:47:24
(UTC-07:00)
Language:

OAO 2 Rocket - Orbit

View from above orbital plane
View from above orbital plane
View from above satellite
View from above satellite

Ground track
Ground track

The orbit data is extracted from the following two-line orbital elements,

1 03598U 68110B   15108.17876850  .00000688  00000-0  16278-3 0  9997
2 03598 034.9929 123.0987 0050086 292.3951 067.1441 14.53997941451266
Epoch (UTC): 18 April 2015 04:17:25
Eccentricity: 0.0050086
inclination: 34.9929°
perigee height: 677 km
apogee height: 748 km
right ascension of ascending node: 123.0987°
argument of perigee: 292.3951°
revolutions per day: 14.53997941
mean anomaly at epoch: 67.1441°
orbit number at epoch: 45126

The dashed part of the orbit path shows where the satellite is in the earth's shadow,  

DLR